| time (UTC) | temp F | wind direction | speed MPH | gust MPH | rain 1hr in | rain 24hr in | rain mn in | humidity % | barometer mb |
| 20260508183044 | 68 | 173 | 1.0 | 3.0 | 0.00 | 0.00 | 0.00 | 31 | 1012.1 |
| 20260508181539 | 68 | 194 | 1.0 | 6.0 | 0.00 | 0.00 | 0.00 | 31 | 1012.3 |
| 20260508180038 | 68 | 137 | 2.0 | 4.0 | 0.00 | 0.00 | 0.00 | 30 | 1012.5 |
| 20260508174536 | 68 | 123 | 1.0 | 6.0 | 0.00 | 0.00 | 0.00 | 32 | 1012.8 |
| 20260508173034 | 67 | 223 | 0.0 | 5.0 | 0.00 | 0.00 | 0.00 | 31 | 1013.0 |
| 20260508171533 | 67 | 191 | 0.0 | 5.0 | 0.00 | 0.00 | 0.00 | 34 | 1013.0 |
| 20260508170030 | 67 | 265 | 0.0 | 6.0 | 0.00 | 0.00 | 0.00 | 32 | 1013.3 |
| 20260508164527 | 67 | 115 | 1.0 | 6.0 | 0.00 | 0.00 | 0.00 | 33 | 1013.6 |
| 20260508163031 | 66 | 254 | 2.0 | 5.0 | 0.00 | 0.00 | 0.00 | 34 | 1013.7 |
| 20260508161523 | 64 | 130 | 1.0 | 5.0 | 0.00 | 0.00 | 0.00 | 37 | 1013.9 |
| 20260508160025 | 63 | 209 | 1.0 | 6.0 | 0.00 | 0.00 | 0.00 | 36 | 1014.0 |
| 20260508154522 | 64 | 190 | 1.0 | 9.0 | 0.00 | 0.00 | 0.00 | 36 | 1014.2 |
| 20260508153020 | 64 | 202 | 2.0 | 5.0 | 0.00 | 0.00 | 0.00 | 37 | 1014.1 |
| 20260508151517 | 63 | 173 | 2.0 | 7.0 | 0.00 | 0.00 | 0.00 | 37 | 1014.2 |
| 20260508150035 | 62 | 178 | 1.0 | 9.0 | 0.00 | 0.00 | 0.00 | 38 | 1014.4 |
| 20260508144512 | 62 | 236 | 1.0 | 6.0 | 0.00 | 0.00 | 0.00 | 40 | 1014.6 |
| 20260508143011 | 60 | 208 | 0.0 | 7.0 | 0.00 | 0.00 | 0.00 | 41 | 1014.7 |
| 20260508141508 | 60 | 201 | 1.0 | 7.0 | 0.00 | 0.00 | 0.00 | 41 | 1014.8 |
| 20260508140004 | 58 | 189 | 1.0 | 6.0 | 0.00 | 0.00 | 0.00 | 43 | 1014.8 |
| 20260508134600 | 57 | 200 | 1.0 | 6.0 | 0.00 | 0.00 | 0.00 | 46 | 1015.0 |
| 20260508133107 | 56 | 167 | 0.0 | 5.0 | 0.00 | 0.00 | 0.00 | 48 | 1015.0 |
| 20260508131600 | 55 | 128 | 0.0 | 3.0 | 0.00 | 0.00 | 0.00 | 51 | 1015.1 |
| 20260508130051 | 54 | 187 | 0.0 | 3.0 | 0.00 | 0.00 | 0.00 | 53 | 1015.2 |
| 20260508124549 | 53 | 163 | 0.0 | 3.0 | 0.00 | 0.00 | 0.00 | 54 | 1015.4 |
| 20260508123049 | 51 | 149 | 0.0 | 3.0 | 0.00 | 0.00 | 0.00 | 59 | 1015.4 |
| 20260508121548 | 49 | 192 | 0.0 | 2.0 | 0.00 | 0.00 | 0.00 | 63 | 1015.4 |
| 20260508120048 | 47 | 188 | 0.0 | 3.0 | 0.00 | 0.00 | 0.00 | 65 | 1015.3 |
| 20260508114545 | 45 | 194 | 0.0 | 2.0 | 0.00 | 0.00 | 0.00 | 67 | 1015.1 |
| 20260508113043 | 44 | 169 | 0.0 | 2.0 | 0.00 | 0.00 | 0.00 | 72 | 1015.1 |
| 20260508111546 | 43 | 159 | 0.0 | 2.0 | 0.00 | 0.00 | 0.00 | 71 | 1014.9 |
| 20260508110040 | 42 | 207 | 0.0 | 2.0 | 0.00 | 0.00 | 0.00 | 74 | 1014.6 |
| 20260508104540 | 42 | 207 | 0.0 | 2.0 | 0.00 | 0.00 | 0.00 | 75 | 1014.5 |
| 20260508103044 | 42 | 207 | 0.0 | 0.0 | 0.00 | 0.00 | 0.00 | 76 | 1014.3 |
| 20260508101544 | 42 | 207 | 0.0 | 2.0 | 0.00 | 0.00 | 0.00 | 74 | 1014.2 |
| 20260508100036 | 42 | 207 | 0.0 | 0.0 | 0.00 | 0.00 | 0.00 | 76 | 1014.2 |
| 20260508094533 | 42 | 207 | 0.0 | 0.0 | 0.00 | 0.00 | 0.00 | 75 | 1014.0 |
| 20260508093035 | 43 | 207 | 0.0 | 0.0 | 0.00 | 0.00 | 0.00 | 74 | 1013.9 |
| 20260508091530 | 44 | 207 | 0.0 | 0.0 | 0.00 | 0.00 | 0.00 | 74 | 1013.7 |
| 20260508090029 | 44 | 207 | 0.0 | 0.0 | 0.00 | 0.00 | 0.00 | 70 | 1013.6 |
| 20260508084521 | 44 | 207 | 0.0 | 0.0 | 0.00 | 0.00 | 0.00 | 68 | 1013.4 |
| 20260508083020 | 45 | 207 | 0.0 | 0.0 | 0.00 | 0.00 | 0.00 | 63 | 1013.4 |
| 20260508081518 | 46 | 207 | 0.0 | 0.0 | 0.00 | 0.00 | 0.00 | 60 | 1013.3 |
| 20260508080028 | 47 | 207 | 0.0 | 0.0 | 0.00 | 0.00 | 0.00 | 59 | 1013.3 |
| 20260508074509 | 49 | 207 | 0.0 | 1.0 | 0.00 | 0.00 | 0.00 | 56 | 1013.2 |
| 20260508073008 | 50 | 207 | 0.0 | 0.0 | 0.00 | 0.00 | 0.00 | 52 | 1013.2 |
| 20260508071648 | 51 | 207 | 0.0 | 2.0 | 0.00 | 0.00 | 0.00 | 50 | 1013.1 |
| 20260508070104 | 52 | 205 | 0.0 | 2.0 | 0.00 | 0.00 | 0.00 | 49 | 1013.0 |
| 20260508064600 | 52 | 203 | 0.0 | 2.0 | 0.00 | 0.00 | 0.00 | 48 | 1012.8 |
| 20260508063055 | 53 | 208 | 0.0 | 3.0 | 0.00 | 0.00 | 0.00 | 47 | 1012.7 |
| 20260508061552 | 53 | 216 | 0.0 | 2.0 | 0.00 | 0.00 | 0.00 | 47 | 1012.7 |
| 20260508060050 | 54 | 339 | 0.0 | 2.0 | 0.00 | 0.00 | 0.00 | 46 | 1012.6 |
| 20260508054549 | 54 | 194 | 0.0 | 2.0 | 0.00 | 0.00 | 0.00 | 46 | 1012.6 |
| 20260508053054 | 54 | 329 | 0.0 | 3.0 | 0.00 | 0.00 | 0.00 | 45 | 1012.6 |
| 20260508051550 | 55 | 202 | 0.0 | 4.0 | 0.00 | 0.00 | 0.00 | 45 | 1012.6 |
| 20260508050057 | 55 | 210 | 0.0 | 4.0 | 0.00 | 0.00 | 0.00 | 46 | 1012.5 |
| 20260508044543 | 54 | 230 | 0.0 | 2.0 | 0.00 | 0.00 | 0.00 | 45 | 1012.3 |
| 20260508043040 | 55 | 212 | 0.0 | 2.0 | 0.00 | 0.00 | 0.00 | 47 | 1012.0 |
| 20260508041537 | 55 | 210 | 0.0 | 2.0 | 0.00 | 0.00 | 0.00 | 46 | 1011.8 |
| 20260508040047 | 55 | 198 | 0.0 | 2.0 | 0.00 | 0.00 | 0.00 | 47 | 1011.5 |
| 20260508034540 | 55 | 215 | 0.0 | 2.0 | 0.00 | 0.00 | 0.00 | 47 | 1011.3 |
| 20260508033031 | 55 | 204 | 0.0 | 2.0 | 0.00 | 0.00 | 0.00 | 46 | 1011.2 |
| 20260508031533 | 56 | 204 | 0.0 | 2.0 | 0.00 | 0.00 | 0.00 | 44 | 1011.0 |
| 20260508030030 | 57 | 204 | 0.0 | 2.0 | 0.00 | 0.00 | 0.00 | 44 | 1010.9 |
| 20260508024531 | 58 | 205 | 0.0 | 2.0 | 0.00 | 0.00 | 0.00 | 43 | 1010.8 |
| 20260508023029 | 58 | 205 | 0.0 | 2.0 | 0.00 | 0.00 | 0.00 | 42 | 1010.8 |
| 20260508021527 | 58 | 205 | 0.0 | 2.0 | 0.00 | 0.00 | 0.00 | 42 | 1010.6 |
| 20260508020028 | 59 | 198 | 0.0 | 2.0 | 0.00 | 0.00 | 0.00 | 42 | 1010.4 |
| 20260508014527 | 59 | 210 | 0.0 | 2.0 | 0.00 | 0.00 | 0.00 | 42 | 1010.4 |
| 20260508013026 | 59 | 208 | 0.0 | 4.0 | 0.00 | 0.00 | 0.00 | 41 | 1010.0 |
| 20260508011526 | 60 | 218 | 0.0 | 2.0 | 0.00 | 0.00 | 0.00 | 40 | 1009.8 |
| 20260508010029 | 60 | 184 | 0.0 | 2.0 | 0.00 | 0.00 | 0.00 | 40 | 1009.5 |
| 20260508004530 | 61 | 183 | 0.0 | 2.0 | 0.00 | 0.00 | 0.00 | 39 | 1009.4 |
| 20260508003026 | 62 | 229 | 0.0 | 2.0 | 0.00 | 0.00 | 0.00 | 39 | 1009.1 |
| 20260508001524 | 62 | 230 | 0.0 | 2.0 | 0.00 | 0.00 | 0.00 | 39 | 1008.8 |
| 20260508000023 | 63 | 344 | 1.0 | 3.0 | 0.00 | 0.00 | 0.00 | 37 | 1008.5 |
| 20260507234533 | 63 | 213 | 0.0 | 5.0 | 0.00 | 0.00 | 0.00 | 39 | 1008.4 |
| 20260507233025 | 63 | 117 | 0.0 | 2.0 | 0.00 | 0.00 | 0.00 | 58 | 1008.2 |
| 20260507231521 | 63 | 139 | 0.0 | 2.0 | 0.00 | 0.00 | 0.00 | 56 | 1008.0 |
| 20260507230021 | 64 | 110 | 0.0 | 2.0 | 0.00 | 0.00 | 0.00 | 56 | 1007.8 |
| 20260507224520 | 65 | 112 | 0.0 | 2.0 | 0.00 | 0.00 | 0.00 | 54 | 1007.5 |
| 20260507223019 | 65 | 118 | 0.0 | 2.0 | 0.00 | 0.00 | 0.00 | 53 | 1007.3 |
| 20260507221529 | 66 | 113 | 0.0 | 2.0 | 0.00 | 0.00 | 0.00 | 51 | 1007.1 |
| 20260507220019 | 68 | 93 | 0.0 | 2.0 | 0.00 | 0.00 | 0.00 | 47 | 1006.9 |
| 20260507214517 | 67 | 338 | 0.0 | 2.0 | 0.00 | 0.00 | 0.00 | 41 | 1006.9 |
| 20260507213023 | 67 | 5 | 0.0 | 2.0 | 0.00 | 0.00 | 0.00 | 40 | 1006.8 |
| 20260507211518 | 67 | 360 | 0.0 | 2.0 | 0.00 | 0.00 | 0.00 | 39 | 1006.8 |
| 20260507210024 | 68 | 333 | 0.0 | 3.0 | 0.00 | 0.00 | 0.00 | 37 | 1006.7 |
| 20260507204515 | 67 | 173 | 0.0 | 2.0 | 0.00 | 0.00 | 0.00 | 40 | 1006.7 |
| 20260507203015 | 67 | 114 | 0.0 | 2.0 | 0.00 | 0.00 | 0.00 | 39 | 1006.8 |
| 20260507201512 | 67 | 124 | 0.0 | 2.0 | 0.00 | 0.00 | 0.00 | 40 | 1006.8 |
| 20260507200013 | 67 | 172 | 0.0 | 2.0 | 0.00 | 0.00 | 0.00 | 39 | 1007.0 |
| 20260507194525 | 68 | 132 | 0.0 | 3.0 | 0.00 | 0.00 | 0.00 | 41 | 1007.1 |
| 20260507193008 | 69 | 201 | 1.0 | 4.0 | 0.00 | 0.00 | 0.00 | 35 | 1007.4 |
| 20260507191505 | 70 | 349 | 0.0 | 2.0 | 0.00 | 0.00 | 0.00 | 36 | 1007.6 |
| 20260507190010 | 70 | 329 | 0.0 | 6.0 | 0.00 | 0.00 | 0.00 | 37 | 1007.7 |
| 20260507184559 | 68 | 355 | 0.0 | 3.0 | 0.00 | 0.00 | 0.00 | 40 | 1007.9 |